Hourly Weather Roundup
Issued by NWS Central Illinois

Home | Current Version | Previous Version | Text Only | Print | Product List | Glossary On
Versions: 1 2 3 4 5 6 7 8 9 10 11 12 13 14 15 16 17 18 19 20 21 22 23 24 25 26 27 28 29 30 31 32 33 34 35 36 37 38 39 40 41 42 43 44 45 46 47 48 49 50
323
NZUS43 KILX 072310
HWRILX

AREA WEATHER ROUNDUP
NATIONAL WEATHER SERVICE, LINCOLN IL
500 PM CST SUN FEB 07 2016


CITY           SKY/WX    TMP DP  RH WIND       PRES   REMARKS
BLOOMINGTON    CLEAR     44  33  65 W10       29.83R
CHAMPAIGN      MOCLDY    44  35  70 W15       29.84R
DANVILLE       PTCLDY    44  34  68 W10G21    29.80S
DECATUR        PTCLDY    46  31  55 W12       29.85S
EFFINGHAM      PTCLDY    48  34  57 W14       29.88S
FLORA          PTCLDY    53  32  43 W15G21    29.87S
GALESBURG      CLEAR     42  29  62 W14       29.83R WCI  34
JACKSONVILLE   PTCLDY    47  33  56 W9        29.86S
LACON          CLEAR     44  28  53 W8        29.80S
LAWRENCEVILLE  CLOUDY    52  29  41 SW12      29.86F
LITCHFIELD     CLEAR     44  32  62 W10       29.88S
$$


CITY           SKY/WX    TMP DP  RH WIND       PRES   REMARKS
LINCOLN        PTCLDY    46  33  62 CALM      29.84S
MACOMB         CLEAR     44  30  57 NW9       29.86S
MATTOON        CLEAR     46  31  55 W16G24    29.84S
MT CARMEL AP   MOCLDY    52  28  40 SW15      29.85F
OLNEY-NOBLE AP CLOUDY    52  32  46 W12G18    29.86S
PARIS          PTCLDY    45  36  71 W15       29.85R
PEORIA         CLEAR     45  27  49 W10       29.83R
PONTIAC        CLEAR     44  35  71 W10       29.80S
RANTOUL        CLOUDY    46  36  70 W14       29.82S
ROBINSON       PTCLDY    50  31  47 SW10      29.86S
SPRINGFIELD    CLEAR     46  33  60 W9        29.85F
TAYLORVILLE    CLEAR     43  32  65 W10       29.87S
$$

...REGIONAL REPORTS...


CITY           SKY/WX    TMP DP  RH WIND       PRES   REMARKS
CHICAGO O`HARE PTCLDY    42  33  70 SW14      29.73R WCI  35
KANKAKEE       CLOUDY    42  33  70 SW8       29.80S
MOLINE         PTCLDY    41  27  57 W13       29.80S WCI  34
MOUNT STERLING CLEAR     44  28  53 NW8       29.85S
MOUNT VERNON   PTCLDY    54  28  37 W7        29.88S
PITTSFIELD     PTCLDY    48  26  41 W9        29.88S
QUINCY         MOCLDY    47  23  38 W9        29.86S
ROCKFORD       PTCLDY    40  27  59 W16G22    29.77R WCI  31
$$


CITY           SKY/WX    TMP DP  RH WIND       PRES   REMARKS
BURLINGTON     CLEAR     43  27  53 NW9G20    29.84R
CEDAR RAPIDS   CLEAR     37  31  78 W14       29.79S WCI  28
DES MOINES     FLURRIES  37  29  72 NW23G32   29.86R WCI  26
KIRKSVILLE     PTCLDY    44  22  41 NW13G23   29.91S
OTTUMWA        MOCLDY    41  26  55 W9        29.85F
ST LOUIS       MOCLDY    51  28  41 W9        29.90S
$$


CITY           SKY/WX    TMP DP  RH WIND       PRES   REMARKS
TERRE HAUTE    CLOUDY    49  31  49 W10G21    29.83S
EVANSVILLE     CLEAR     54  25  32 SW14G24   29.89F
INDIANAPOLIS   CLOUDY    50  27  40 SW18      29.81S
LAFAYETTE      PTCLDY    45  32  60 W14G21    29.81R
MADISON        PTCLDY    38  26  62 SW8       29.67R WCI  32
MILWAUKEE      PTCLDY    42  28  57 W18G24    29.68R WCI  34
$$






USA.gov is the U.S. government's official web portal to all federal, state and local government web resources and services.